Content
SEND FEEDBACK

Daily
Averages
Monthly
Summary
United States of America

MORRISON, COLORADO


Home > North America > United States > Colorado
Elevation: 7040 feet     Latitude: 39 34N     Longitude: 105 13W

WEATHER
 
SELECT A DAY
Number of Records: 183,159;   Date Range: 1/1/95 - 10/23/14
 
SHARE

PRINT THIS DATA

[ ← Previous Day ]
WEATHER ALMANAC - JANUARY 31, 2013
[ Next Day → ]
[ °C ]   °F
Weather ElementAverageHighLow
Temperature34.5 °F46 °F (1:53 pm)21.9 °F (2:53 am)
Dewpoint15.3 °F19.9 °F (7:53 pm)10.9 °F (3:53 am)
Humidity47.9 %72 % (10:53 pm)25 % (1:53 pm)
Barometer30.09 in30.17 in (7:53 pm)29.96 in (1:53 am)
Wind Speed8.6 mph21.9 mph (1:53 pm)
Wind Gust32.2 mph (1:53 pm)
Weather ElementAverage
Visibility10 mi
Wind DirectionS (175.7 °)

Weather ElementTotal
Precipitation---
Heating Degree Days31.1 (Base 65)
Averaged from 23 records on January 31, 2013
WEATHER CONDITIONS BREAKOUT
WIND DIRECTION BREAKOUT
WEATHER BY HOUR - JANUARY 31, 2013
[ °C ]   °F
Local TimeTemperatureDewpointHumidityBarometerVisibilityWind DirectionWind SpeedGust SpeedPrecipitationEventsConditions
1:53 AM25.0 °F12.9 °F60 %29.96 in10.0 miSW (220°)4.6 mphPartly Cloudy
2:53 AM21.9 °F12.9 °F68 %29.99 in10.0 miCalmScattered Clouds
3:53 AM26.1 °F10.9 °F53 %29.98 in10.0 miSE (130°)4.6 mphScattered Clouds
4:53 AM25.0 °F14.0 °F63 %30.00 in10.0 miNNE (20°)3.5 mphMostly Cloudy
5:53 AM33.1 °F14.0 °F46 %29.98 in10.0 miWNW (300°)5.8 mphPartly Cloudy
6:53 AM33.1 °F12.9 °F43 %30.00 in10.0 miWNW (300°)8.1 mphScattered Clouds
7:53 AM28.9 °F14.0 °F54 %30.06 in10.0 miVariable4.6 mphScattered Clouds
8:53 AM35.1 °F15.1 °F44 %30.11 in10.0 miVariable3.5 mphScattered Clouds
9:53 AM37.0 °F15.1 °F41 %30.16 in10.0 miNorth (10°)8.1 mphScattered Clouds
10:53 AM39.0 °F17.1 °F41 %30.16 in10.0 miNorth (360°)13.8 mph19.6 mphScattered Clouds
11:53 AM42.1 °F16.0 °F35 %30.15 in10.0 miNNW (340°)12.7 mphScattered Clouds
12:53 PM44.1 °F14.0 °F30 %30.10 in10.0 miNW (320°)19.6 mph23.0 mphScattered Clouds
1:53 PM46.0 °F12.0 °F25 %30.08 in10.0 miNNW (330°)21.9 mph32.2 mphScattered Clouds
2:53 PM45.0 °F12.0 °F26 %30.09 in10.0 miNNW (340°)18.4 mph26.5 mphScattered Clouds
3:53 PM45.0 °F12.9 °F27 %30.09 in10.0 miNorth (350°)10.4 mphScattered Clouds
4:53 PM42.1 °F16.0 °F35 %30.12 in10.0 miNE (40°)9.2 mphScattered Clouds
5:53 PM37.0 °F18.0 °F46 %30.12 in10.0 miSSE (150°)9.2 mphScattered Clouds
6:53 PM35.1 °F17.1 °F48 %30.14 in10.0 miSSE (160°)8.1 mphPartly Cloudy
7:53 PM34.0 °F19.9 °F56 %30.17 in10.0 miSSE (150°)10.4 mphPartly Cloudy
8:53 PM33.1 °F19.9 °F59 %30.15 in10.0 miSSE (150°)10.4 mphPartly Cloudy
9:53 PM30.9 °F19.0 °F61 %30.15 in10.0 miSouth (170°)6.9 mphPartly Cloudy
10:53 PM27.0 °F19.0 °F72 %30.17 in10.0 miSSW (200°)3.5 mphPartly Cloudy
11:53 PM27.0 °F18.0 °F69 %30.14 in10.0 miCalmPartly Cloudy
Hourly data recorded from KAPA, located miles away from Morrison, Colorado







STORIES FROM OUR PARTNERS